DateTimeUTC,F1_A11,F1_S11,BsB_S11,BsG_S11,BsR_S11,BbsB_S11,BbsG_S11,BbsR_S11,BaB_A11,BaG_A11,BaR_A11,Tu_S11,T_S11,Uu_S11,U_S11,P_S11,T1_A11
2021-10-27T20:00:00Z,00040200,21000000,,,,,,,0000.26,0000.40,0000.14,18.5,25.6,,00.0,0655.4,31.1
2021-10-27T20:01:00Z,00040200,21000000,,,,,,,-000.36,0000.09,-000.17,18.6,25.5,,00.0,0655.4,31.1
2021-10-27T20:02:00Z,00040200,21000000,,,,,,,0000.32,0000.26,0000.57,18.6,25.6,,00.0,0655.4,31.1
2021-10-27T20:03:00Z,00040200,61000000,,,,,,,0000.66,0000.47,0000.04,18.6,25.6,,00.0,0655.4,31.1
2021-10-27T20:04:00Z,00040200,41000000,0000.53,0000.30,-000.56,0000.11,0000.13,0000.25,0000.20,0000.14,0000.23,18.9,25.5,,00.0,0656.3,31.1
2021-10-27T20:05:00Z,00040200,01000000,0000.09,-000.18,-000.45,0000.66,0000.27,0000.10,0000.01,0000.23,0000.04,18.9,25.5,,00.0,0656.3,31.1
2021-10-27T20:06:00Z,00040200,01000000,-000.32,0000.01,-000.24,-000.80,0000.37,-000.09,0000.27,-000.09,0000.39,18.8,25.5,,00.0,0656.3,31.0
2021-10-27T20:07:00Z,00040200,01000000,0000.11,0000.06,-000.56,0000.51,0000.19,0000.31,-000.42,-000.11,-000.22,18.8,25.4,,00.0,0656.4,31.0
2021-10-27T20:08:00Z,00040200,01000000,-000.28,-000.01,-000.32,-000.07,0000.04,-000.15,-000.37,-000.25,-000.70,18.7,25.4,,00.0,0656.3,31.0
2021-10-27T20:09:00Z,00040200,01000000,-000.53,-000.19,-000.61,0000.48,0000.07,-000.05,-000.72,-001.28,-000.33,18.6,25.3,,00.0,0656.3,31.0
2021-10-27T20:10:00Z,00040200,01000000,0000.07,0000.29,-000.74,-000.25,0000.43,-000.01,-000.48,-000.40,-000.40,18.5,25.3,,00.0,0656.3,31.0
2021-10-27T20:11:00Z,00040200,01000000,-000.04,-000.12,-000.43,0000.06,-000.21,-000.11,-000.85,-000.92,-000.70,18.5,25.2,,00.0,0656.3,31.0
2021-10-27T20:12:00Z,00040200,01000000,0000.04,0000.22,-000.49,-000.40,0000.24,0000.17,-001.02,-000.69,-000.60,18.5,25.2,,00.0,0656.3,31.0
2021-10-27T20:13:00Z,00040200,01000000,-001.04,0000.07,-000.67,-000.56,0000.23,0000.31,-000.83,-000.50,-000.51,18.5,25.2,,00.0,0656.3,31.0
2021-10-27T20:14:00Z,00040200,01000000,-000.32,-000.06,-000.62,-000.13,0000.47,0000.20,-000.36,-000.66,-000.04,18.6,25.2,,00.0,0656.3,31.0
2021-10-27T20:15:00Z,00040200,01000000,0000.43,0000.26,-000.29,-000.39,0000.16,-000.06,-000.50,-000.50,-000.31,18.6,25.2,,00.0,0656.4,31.1
2021-10-27T20:16:00Z,00040200,01000000,0000.26,0000.40,0000.86,0001.27,0000.31,0002.01,-000.24,-000.25,-000.11,18.7,25.3,,00.0,0656.4,31.1
2021-10-27T20:17:00Z,00040200,01000000,-000.04,0000.05,-000.28,-000.35,-000.13,0000.03,0000.13,0000.10,-000.26,18.8,25.3,,00.0,0656.4,31.1
2021-10-27T20:18:00Z,00040200,01000000,-007.18,-001.38,-008.78,-007.60,-001.39,-008.12,-000.16,-000.05,0000.31,18.9,25.4,,00.0,0656.4,31.1
2021-10-27T20:19:00Z,00040200,01000000,-000.27,-000.06,-000.57,0000.17,0000.19,-000.08,-000.13,0000.45,-000.07,18.9,25.4,,00.0,0656.5,31.1
2021-10-27T20:20:00Z,00040200,01000000,-000.22,0000.12,-000.68,0000.43,0000.14,0000.71,0000.38,0000.10,0000.31,19.0,25.4,,00.0,0656.4,31.1
2021-10-27T20:21:00Z,00040200,01000000,-000.14,0000.10,-000.81,-000.66,-000.02,-000.16,0000.15,0000.44,0000.03,19.0,25.4,,00.0,0656.4,31.1
2021-10-27T20:22:00Z,00040200,01000000,-000.35,0000.35,-000.33,0000.42,0000.23,0000.08,0000.55,0000.15,0000.59,18.9,25.4,,00.0,0656.4,31.1
2021-10-27T20:23:00Z,00040200,01000000,0000.26,-000.17,-000.34,0000.61,0000.14,-000.09,0000.34,0000.26,-000.04,18.8,25.4,,00.0,0656.4,31.1
2021-10-27T20:24:00Z,00040200,01000000,0000.72,-000.09,-000.44,-000.37,0000.03,-000.14,-000.28,-000.25,-000.19,18.8,25.4,,00.0,0656.4,31.1
2021-10-27T20:25:00Z,00040200,01000000,-000.81,0000.56,-000.54,-000.10,0000.26,0000.40,0000.02,-000.01,-000.24,18.7,25.3,,00.0,0656.4,31.0
2021-10-27T20:26:00Z,00040200,01000000,0000.15,0000.42,-000.83,0000.81,0000.29,0000.05,-000.41,-000.09,0000.21,18.6,25.2,,00.0,0656.4,31.0
2021-10-27T20:27:00Z,00040200,01000000,-000.01,0000.30,-000.58,-000.24,0000.09,0000.01,0000.10,-000.42,-000.10,18.6,25.2,,00.0,0656.4,31.0
2021-10-27T20:28:00Z,00040200,01000000,0000.21,0000.18,-000.60,0000.12,0000.27,0000.16,0000.15,0000.24,0000.01,18.7,25.3,,00.0,0656.4,31.0
2021-10-27T20:29:00Z,00040200,01000000,-001.03,0000.12,-000.40,0000.10,0000.42,-000.09,0000.00,0000.48,0000.09,18.7,25.3,,00.0,0656.4,31.1
2021-10-27T20:30:00Z,00040200,01000000,-000.30,-000.19,-000.53,0000.62,0000.00,0000.49,0000.36,-000.53,0000.29,18.8,25.3,,00.0,0656.4,31.1
2021-10-27T20:31:00Z,00040200,01000000,0000.78,0000.11,-000.38,-000.52,0000.23,0000.07,0000.19,0000.79,0000.03,18.8,25.3,,00.0,0656.4,31.1
2021-10-27T20:32:00Z,00040200,01000000,-000.27,-000.14,-000.45,-000.20,0000.30,-000.06,0000.42,0000.41,0000.33,18.9,25.4,,00.0,0656.4,31.1
2021-10-27T20:33:00Z,00040200,01000000,-000.51,0000.28,-000.32,-000.27,-000.15,0000.22,0000.32,0000.22,0000.31,19.0,25.4,,00.0,0656.4,31.1
2021-10-27T20:34:00Z,00040200,01000000,-000.01,0000.06,-000.63,-000.40,-000.19,0000.01,0000.53,0000.74,0000.37,19.0,25.5,,00.0,0656.4,31.1
2021-10-27T20:35:00Z,00040200,01000000,-001.21,0000.14,-000.40,-000.35,-000.16,0000.01,0000.50,0000.11,0000.20,19.0,25.5,,00.0,0656.4,31.1
2021-10-27T20:36:00Z,00040200,01000000,0000.70,0000.17,-000.60,-000.82,-000.10,-000.18,0000.54,0000.47,0000.62,18.9,25.4,,00.0,0656.4,31.1
2021-10-27T20:37:00Z,00040200,01000000,0000.07,0000.07,-000.40,-000.04,0000.32,0000.21,0000.61,0000.41,0000.12,18.8,25.4,,00.0,0656.4,31.0
2021-10-27T20:38:00Z,00040200,01000000,-000.48,-000.15,-000.66,0000.17,0000.28,0000.29,0000.59,0000.72,0000.58,18.8,25.4,,00.0,0656.4,31.0
2021-10-27T20:39:00Z,00040200,01000000,0000.11,0000.22,-000.55,-000.03,0000.12,0000.09,0000.23,0000.26,-000.20,18.7,25.3,,00.0,0656.4,31.0
2021-10-27T20:40:00Z,00040200,01000000,-000.11,0000.21,-000.36,0000.55,0000.34,-000.00,0000.36,-000.37,0000.30,18.6,25.2,,00.0,0656.4,31.0
2021-10-27T20:41:00Z,00040200,01000000,-000.23,0000.08,-000.60,-000.08,0000.07,-000.22,0000.25,0000.90,0000.30,18.6,25.2,,00.0,0656.4,31.0
2021-10-27T20:42:00Z,00040200,01000000,0000.27,0000.12,-000.19,0000.03,0000.02,-000.03,0000.44,0000.44,0000.28,18.5,25.2,,00.0,0656.4,31.0
2021-10-27T20:43:00Z,00040200,01000000,0000.07,0000.46,-000.46,-000.45,0000.14,0000.39,0000.35,0000.13,0000.46,18.6,25.2,,00.0,0656.4,31.0
2021-10-27T20:44:00Z,00040200,01000000,-000.99,0000.14,-000.74,-000.25,0000.18,-000.18,0000.20,0000.43,-000.13,18.6,25.2,,00.0,0656.4,31.1
2021-10-27T20:45:00Z,00040200,01000000,-000.45,0000.15,-000.30,0000.03,0000.30,-000.07,0000.07,0000.39,0000.19,18.7,25.3,,00.0,0656.4,31.1
2021-10-27T20:46:00Z,00040200,01000000,-000.19,0000.32,-000.55,0000.49,0000.22,0000.14,-000.09,-000.49,0000.08,18.8,25.3,,00.0,0656.4,31.1
2021-10-27T20:47:00Z,00040200,01000000,-000.48,0000.06,-000.62,0000.03,0000.23,-000.23,0000.06,-000.20,-000.22,18.8,25.3,,00.0,0656.4,31.1
2021-10-27T20:48:00Z,00040200,01000000,-000.63,0000.21,-000.32,-000.36,0000.20,-000.10,-000.03,0000.45,0000.25,18.9,25.4,,00.0,0656.4,31.1
2021-10-27T20:49:00Z,00040200,01000000,-000.08,0000.21,-000.50,0000.65,0000.08,-000.04,0000.48,-000.13,0000.11,19.0,25.4,,00.0,0656.4,31.1
2021-10-27T20:50:00Z,00040200,01000000,-000.20,0000.07,-000.23,-000.16,0000.15,-000.11,-000.45,0000.27,-000.04,19.0,25.4,,00.0,0656.4,31.1
2021-10-27T20:51:00Z,00040200,01000000,-000.36,0000.05,-000.71,-000.27,0000.19,-000.37,0000.39,-000.14,0000.33,19.0,25.4,,00.0,0656.4,31.1
2021-10-27T20:52:00Z,00040200,01000000,-000.11,0000.27,-000.59,-000.01,0000.44,0000.00,0000.21,0000.17,-000.31,18.9,25.4,,00.0,0656.4,31.1
2021-10-27T20:53:00Z,00040200,01000000,-000.78,-000.04,-000.38,0000.60,0000.24,0000.36,0000.04,0000.27,0000.68,18.8,25.4,,00.0,0656.3,31.0
2021-10-27T20:54:00Z,00040200,01000000,0000.17,0000.00,-000.56,0000.01,0000.51,-000.22,0000.31,0000.11,-000.32,18.7,25.3,,00.0,0656.3,31.0
2021-10-27T20:55:00Z,00040200,01000000,-000.08,0000.26,-000.30,0000.17,0000.22,0000.18,0000.05,0000.10,0000.33,18.7,25.3,,00.0,0656.3,31.0
2021-10-27T20:56:00Z,00040200,01000000,-000.16,-000.25,-000.38,-000.27,0000.22,-000.16,0000.34,0000.46,-000.17,18.6,25.2,,00.0,0656.3,31.0
2021-10-27T20:57:00Z,00040200,41000000,,,,,,,0000.81,0000.68,0000.54,18.6,25.3,,00.0,0656.3,31.0
2021-10-27T20:58:00Z,00040200,61000000,,,,,,,-000.13,-000.43,-000.08,18.4,25.3,,00.0,0655.4,31.1
2021-10-27T20:59:00Z,00040200,21000000,,,,,,,-000.54,-000.21,0000.01,18.4,25.4,,00.0,0655.3,31.1
